Time,TemperatureF,DewpointF,PressureIn,WindDirection,WindDirectionDegrees,WindSpeedMPH,WindSpeedGustMPH,Humidity,HourlyPrecipIn,Conditions,Clouds,dailyrainin,SoftwareType,DateUTC
2013-04-18 00:01:00,42.6,38.1,30.24,East,86,0.0,0.0,84,0.00,,,0.00,Wunderground v.1.15,2013-04-18 04:01:00,
2013-04-18 00:02:00,42.5,37.7,30.24,East,86,0.0,0.0,83,0.00,,,0.00,Wunderground v.1.15,2013-04-18 04:02:00,
2013-04-18 00:05:00,42.5,37.7,30.25,East,86,0.0,0.0,83,0.00,,,0.00,Wunderground v.1.15,2013-04-18 04:05:00,
2013-04-18 00:07:00,42.3,37.5,30.25,East,86,0.0,0.0,83,0.00,,,0.00,Wunderground v.1.15,2013-04-18 04:07:00,
2013-04-18 00:15:00,42.1,37.3,30.25,East,86,0.0,0.0,83,0.00,,,0.00,Wunderground v.1.15,2013-04-18 04:15:00,
2013-04-18 00:18:00,42.1,37.6,30.25,East,86,0.0,0.0,84,0.00,,,0.00,Wunderground v.1.15,2013-04-18 04:18:00,
2013-04-18 00:25:00,41.8,37.6,30.25,East,86,0.0,0.0,85,0.00,,,0.00,Wunderground v.1.15,2013-04-18 04:25:00,
2013-04-18 00:31:00,41.6,37.4,30.25,East,86,0.0,0.0,85,0.00,,,0.00,Wunderground v.1.15,2013-04-18 04:31:00,
2013-04-18 00:37:00,41.3,37.1,30.25,East,86,0.0,0.0,85,0.00,,,0.00,Wunderground v.1.15,2013-04-18 04:37:00,
2013-04-18 00:42:00,41.2,37.0,30.25,East,86,0.0,0.0,85,0.00,,,0.00,Wunderground v.1.15,2013-04-18 04:42:00,
2013-04-18 00:48:00,41.1,37.2,30.25,East,86,0.0,0.0,86,0.00,,,0.00,Wunderground v.1.15,2013-04-18 04:48:00,
2013-04-18 00:55:00,40.9,37.0,30.25,East,86,0.0,0.0,86,0.00,,,0.00,Wunderground v.1.15,2013-04-18 04:55:00,
2013-04-18 01:01:00,40.8,37.2,30.25,East,86,0.0,0.0,87,0.00,,,0.00,Wunderground v.1.15,2013-04-18 05:01:00,
2013-04-18 01:07:00,40.5,36.9,30.25,East,86,0.0,0.0,87,0.00,,,0.00,Wunderground v.1.15,2013-04-18 05:07:00,
2013-04-18 01:12:00,40.5,37.2,30.25,East,86,0.0,0.0,88,0.00,,,0.00,Wunderground v.1.15,2013-04-18 05:12:00,
2013-04-18 01:17:00,40.2,36.9,30.25,East,86,0.0,0.0,88,0.00,,,0.00,Wunderground v.1.15,2013-04-18 05:17:00,
2013-04-18 01:25:00,40.1,36.8,30.25,East,86,0.0,0.0,88,0.00,,,0.00,Wunderground v.1.15,2013-04-18 05:25:00,
2013-04-18 01:31:00,39.8,36.8,30.25,East,86,0.0,0.0,89,0.00,,,0.00,Wunderground v.1.15,2013-04-18 05:31:00,
2013-04-18 01:37:00,39.6,36.6,30.25,East,86,0.0,0.0,89,0.00,,,0.00,Wunderground v.1.15,2013-04-18 05:37:00,
2013-04-18 01:42:00,39.5,36.5,30.25,East,86,0.0,0.0,89,0.00,,,0.00,Wunderground v.1.15,2013-04-18 05:42:00,
2013-04-18 01:48:00,39.2,36.2,30.25,East,86,0.0,0.0,89,0.00,,,0.00,Wunderground v.1.15,2013-04-18 05:48:00,
2013-04-18 01:55:00,39.1,36.1,30.23,East,86,0.0,0.0,89,0.00,,,0.00,Wunderground v.1.15,2013-04-18 05:55:00,
2013-04-18 02:01:00,38.8,35.8,30.23,East,86,0.0,0.0,89,0.00,,,0.00,Wunderground v.1.15,2013-04-18 06:01:00,
2013-04-18 02:06:00,38.6,35.6,30.23,East,86,0.0,0.0,89,0.00,,,0.00,Wunderground v.1.15,2013-04-18 06:06:00,
2013-04-18 02:11:00,38.6,35.9,30.23,East,86,0.0,0.0,90,0.00,,,0.00,Wunderground v.1.15,2013-04-18 06:11:00,
2013-04-18 02:16:00,38.5,35.8,30.23,East,86,0.0,0.0,90,0.00,,,0.00,Wunderground v.1.15,2013-04-18 06:16:00,
2013-04-18 02:21:00,38.3,35.6,30.23,East,86,0.0,0.0,90,0.00,,,0.00,Wunderground v.1.15,2013-04-18 06:21:00,
2013-04-18 02:26:00,38.2,35.5,30.23,East,86,0.0,0.0,90,0.00,,,0.00,Wunderground v.1.15,2013-04-18 06:26:00,
2013-04-18 02:32:00,38.2,35.8,30.23,East,86,0.0,0.0,91,0.00,,,0.00,Wunderground v.1.15,2013-04-18 06:32:00,
2013-04-18 02:37:00,38.0,35.6,30.25,East,86,0.0,0.0,91,0.00,,,0.00,Wunderground v.1.15,2013-04-18 06:37:00,
2013-04-18 02:42:00,37.9,35.5,30.25,East,86,0.0,0.0,91,0.00,,,0.00,Wunderground v.1.15,2013-04-18 06:42:00,
2013-04-18 02:47:00,37.9,35.5,30.25,East,86,0.0,0.0,91,0.00,,,0.00,Wunderground v.1.15,2013-04-18 06:47:00,
2013-04-18 02:52:00,37.8,35.4,30.26,East,86,0.0,0.0,91,0.00,,,0.00,Wunderground v.1.15,2013-04-18 06:52:00,
2013-04-18 02:57:00,37.8,35.7,30.26,East,86,0.0,0.0,92,0.00,,,0.00,Wunderground v.1.15,2013-04-18 06:57:00,
2013-04-18 03:02:00,37.6,35.5,30.26,East,86,0.0,0.0,92,0.00,,,0.00,Wunderground v.1.15,2013-04-18 07:02:00,
2013-04-18 03:07:00,37.5,35.4,30.26,East,86,0.0,0.0,92,0.00,,,0.00,Wunderground v.1.15,2013-04-18 07:07:00,
2013-04-18 03:12:00,37.5,35.4,30.26,East,86,0.0,0.0,92,0.00,,,0.00,Wunderground v.1.15,2013-04-18 07:12:00,
2013-04-18 03:17:00,37.3,35.2,30.26,East,86,0.0,2.0,92,0.00,,,0.00,Wunderground v.1.15,2013-04-18 07:17:00,
2013-04-18 03:22:00,37.3,35.2,30.26,East,85,0.0,0.0,92,0.00,,,0.00,Wunderground v.1.15,2013-04-18 07:22:00,
2013-04-18 03:27:00,37.2,35.4,30.26,East,85,0.0,0.0,93,0.00,,,0.00,Wunderground v.1.15,2013-04-18 07:27:00,
2013-04-18 03:32:00,37.2,35.4,30.26,East,85,0.0,0.0,93,0.00,,,0.00,Wunderground v.1.15,2013-04-18 07:32:00,
2013-04-18 03:37:00,37.2,35.4,30.25,East,85,0.0,0.0,93,0.00,,,0.00,Wunderground v.1.15,2013-04-18 07:37:00,
2013-04-18 03:42:00,37.0,35.2,30.25,East,85,0.0,0.0,93,0.00,,,0.00,Wunderground v.1.15,2013-04-18 07:42:00,
2013-04-18 03:47:00,37.0,35.2,30.25,East,85,0.0,0.0,93,0.00,,,0.00,Wunderground v.1.15,2013-04-18 07:47:00,
2013-04-18 03:52:00,36.9,35.1,30.26,East,85,0.0,0.0,93,0.00,,,0.00,Wunderground v.1.15,2013-04-18 07:52:00,
2013-04-18 03:57:00,36.9,35.1,30.26,East,85,0.0,0.0,93,0.00,,,0.00,Wunderground v.1.15,2013-04-18 07:57:00,
2013-04-18 04:02:00,36.8,35.2,30.26,East,85,0.0,0.0,94,0.00,,,0.00,Wunderground v.1.15,2013-04-18 08:02:00,
2013-04-18 04:07:00,36.6,34.8,30.26,East,85,0.0,0.0,93,0.00,,,0.00,Wunderground v.1.15,2013-04-18 08:07:00,
2013-04-18 04:12:00,36.6,35.0,30.26,East,85,0.0,0.0,94,0.00,,,0.00,Wunderground v.1.15,2013-04-18 08:12:00,
2013-04-18 04:17:00,36.5,34.9,30.26,East,85,0.0,0.0,94,0.00,,,0.00,Wunderground v.1.15,2013-04-18 08:17:00,
2013-04-18 04:22:00,36.5,34.9,30.26,East,85,0.0,0.0,94,0.00,,,0.00,Wunderground v.1.15,2013-04-18 08:22:00,
2013-04-18 04:27:00,36.3,34.7,30.26,East,85,0.0,0.0,94,0.00,,,0.00,Wunderground v.1.15,2013-04-18 08:27:00,
2013-04-18 04:32:00,36.2,34.6,30.26,East,85,0.0,0.0,94,0.00,,,0.00,Wunderground v.1.15,2013-04-18 08:32:00,
2013-04-18 04:37:00,36.0,34.4,30.26,East,85,0.0,0.0,94,0.00,,,0.00,Wunderground v.1.15,2013-04-18 08:37:00,
2013-04-18 04:42:00,35.9,34.3,30.26,East,85,0.0,2.0,94,0.00,,,0.00,Wunderground v.1.15,2013-04-18 08:42:00,
2013-04-18 04:47:00,35.9,34.3,30.26,East,85,0.0,2.0,94,0.00,,,0.00,Wunderground v.1.15,2013-04-18 08:47:00,
2013-04-18 04:53:00,35.9,34.3,30.26,East,85,0.0,0.0,94,0.00,,,0.00,Wunderground v.1.15,2013-04-18 08:53:00,
2013-04-18 04:58:00,35.8,34.2,30.26,East,85,0.0,0.0,94,0.00,,,0.00,Wunderground v.1.15,2013-04-18 08:58:00,
2013-04-18 05:03:00,35.8,34.2,30.26,East,85,0.0,0.0,94,0.00,,,0.00,Wunderground v.1.15,2013-04-18 09:03:00,
2013-04-18 05:08:00,35.8,34.2,30.26,East,85,0.0,0.0,94,0.00,,,0.00,Wunderground v.1.15,2013-04-18 09:08:00,
2013-04-18 05:15:00,35.8,34.2,30.26,East,85,0.0,0.0,94,0.00,,,0.00,Wunderground v.1.15,2013-04-18 09:15:00,
2013-04-18 05:20:00,35.8,34.2,30.26,East,85,0.0,0.0,94,0.00,,,0.00,Wunderground v.1.15,2013-04-18 09:20:00,
2013-04-18 05:25:00,35.6,34.0,30.26,East,85,0.0,0.0,94,0.00,,,0.00,Wunderground v.1.15,2013-04-18 09:25:00,
2013-04-18 05:30:00,35.6,34.0,30.26,East,85,0.0,0.0,94,0.00,,,0.00,Wunderground v.1.15,2013-04-18 09:30:00,
2013-04-18 05:35:00,35.6,34.0,30.25,East,85,0.0,0.0,94,0.00,,,0.00,Wunderground v.1.15,2013-04-18 09:35:00,
2013-04-18 05:41:00,35.6,34.0,30.25,East,85,0.0,0.0,94,0.00,,,0.00,Wunderground v.1.15,2013-04-18 09:41:00,
2013-04-18 05:46:00,35.5,33.9,30.25,East,85,0.0,0.0,94,0.00,,,0.00,Wunderground v.1.15,2013-04-18 09:46:00,
2013-04-18 05:51:00,35.5,34.2,30.26,East,85,0.0,0.0,95,0.00,,,0.00,Wunderground v.1.15,2013-04-18 09:51:00,
2013-04-18 05:56:00,35.5,34.2,30.26,East,85,0.0,0.0,95,0.00,,,0.00,Wunderground v.1.15,2013-04-18 09:56:00,
2013-04-18 06:01:00,35.3,34.0,30.26,East,85,0.0,0.0,95,0.00,,,0.00,Wunderground v.1.15,2013-04-18 10:01:00,
2013-04-18 06:06:00,35.3,34.0,30.26,East,85,0.0,0.0,95,0.00,,,0.00,Wunderground v.1.15,2013-04-18 10:06:00,
2013-04-18 06:11:00,35.2,33.9,30.26,East,85,0.0,0.0,95,0.00,,,0.00,Wunderground v.1.15,2013-04-18 10:11:00,
2013-04-18 06:16:00,35.3,34.0,30.26,East,85,0.0,0.0,95,0.00,,,0.00,Wunderground v.1.15,2013-04-18 10:16:00,
2013-04-18 06:22:00,35.3,34.0,30.26,East,85,0.0,0.0,95,0.00,,,0.00,Wunderground v.1.15,2013-04-18 10:22:00,
2013-04-18 06:27:00,35.3,34.0,30.26,East,85,0.0,0.0,95,0.00,,,0.00,Wunderground v.1.15,2013-04-18 10:27:00,
2013-04-18 06:32:00,35.5,34.2,30.26,East,85,0.0,0.0,95,0.00,,,0.00,Wunderground v.1.15,2013-04-18 10:32:00,
2013-04-18 06:37:00,35.5,34.2,30.27,East,85,0.0,0.0,95,0.00,,,0.00,Wunderground v.1.15,2013-04-18 10:37:00,
2013-04-18 06:42:00,35.3,34.0,30.27,East,85,0.0,0.0,95,0.00,,,0.00,Wunderground v.1.15,2013-04-18 10:42:00,
2013-04-18 06:47:00,35.3,34.0,30.27,East,85,0.0,0.0,95,0.00,,,0.00,Wunderground v.1.15,2013-04-18 10:47:00,
2013-04-18 06:52:00,35.5,34.2,30.27,East,85,0.0,0.0,95,0.00,,,0.00,Wunderground v.1.15,2013-04-18 10:52:00,
2013-04-18 06:57:00,35.6,34.3,30.27,East,85,0.0,0.0,95,0.00,,,0.00,Wunderground v.1.15,2013-04-18 10:57:00,
2013-04-18 07:02:00,35.9,34.9,30.27,East,85,0.0,0.0,96,0.00,,,0.00,Wunderground v.1.15,2013-04-18 11:02:00,
2013-04-18 07:07:00,36.2,35.2,30.29,East,85,0.0,0.0,96,0.00,,,0.00,Wunderground v.1.15,2013-04-18 11:07:00,
2013-04-18 07:12:00,36.6,35.6,30.29,East,85,0.0,0.0,96,0.00,,,0.00,Wunderground v.1.15,2013-04-18 11:12:00,
2013-04-18 07:17:00,37.0,36.2,30.29,East,85,0.0,1.0,97,0.00,,,0.00,Wunderground v.1.15,2013-04-18 11:17:00,
2013-04-18 07:22:00,37.6,36.8,30.30,East,85,0.0,0.0,97,0.00,,,0.00,Wunderground v.1.15,2013-04-18 11:22:00,
2013-04-18 07:27:00,38.0,37.2,30.30,East,85,0.0,0.0,97,0.00,,,0.00,Wunderground v.1.15,2013-04-18 11:27:00,
2013-04-18 07:32:00,38.6,37.8,30.30,East,85,0.0,0.0,97,0.00,,,0.00,Wunderground v.1.15,2013-04-18 11:32:00,
2013-04-18 07:37:00,39.2,38.4,30.29,East,85,0.0,0.0,97,0.00,,,0.00,Wunderground v.1.15,2013-04-18 11:37:00,
2013-04-18 07:42:00,39.8,39.0,30.29,East,85,0.0,0.0,97,0.00,,,0.00,Wunderground v.1.15,2013-04-18 11:42:00,
2013-04-18 07:47:00,40.3,39.5,30.29,East,85,0.0,0.0,97,0.00,,,0.00,Wunderground v.1.15,2013-04-18 11:47:00,
2013-04-18 07:52:00,41.1,40.0,30.29,East,85,0.0,0.0,96,0.00,,,0.00,Wunderground v.1.15,2013-04-18 11:52:00,
2013-04-18 07:57:00,41.6,40.5,30.29,East,85,0.0,0.0,96,0.00,,,0.00,Wunderground v.1.15,2013-04-18 11:57:00,
2013-04-18 08:02:00,42.1,40.5,30.29,East,85,0.0,0.0,94,0.00,,,0.00,Wunderground v.1.15,2013-04-18 12:02:00,
2013-04-18 08:07:00,42.3,40.4,30.29,East,85,0.0,0.0,93,0.00,,,0.00,Wunderground v.1.15,2013-04-18 12:07:00,
2013-04-18 08:12:00,43.1,40.9,30.29,East,85,0.0,0.0,92,0.00,,,0.00,Wunderground v.1.15,2013-04-18 12:12:00,
2013-04-18 08:17:00,43.8,41.6,30.29,East,85,0.0,0.0,92,0.00,,,0.00,Wunderground v.1.15,2013-04-18 12:17:00,
2013-04-18 08:22:00,44.9,42.4,30.29,East,85,0.0,0.0,91,0.00,,,0.00,Wunderground v.1.15,2013-04-18 12:22:00,
2013-04-18 08:27:00,45.8,42.4,30.29,East,85,0.0,1.0,88,0.00,,,0.00,Wunderground v.1.15,2013-04-18 12:27:00,
2013-04-18 08:32:00,47.0,43.3,30.29,NW,304,2.0,3.0,87,0.00,,,0.00,Wunderground v.1.15,2013-04-18 12:32:00,
2013-04-18 08:38:00,48.5,44.8,30.28,South,181,2.0,7.0,87,0.00,,,0.00,Wunderground v.1.15,2013-04-18 12:38:00,
2013-04-18 08:43:00,50.1,38.4,30.28,South,184,0.0,6.0,64,0.00,,,0.00,Wunderground v.1.15,2013-04-18 12:43:00,
2013-04-18 08:48:00,51.1,38.1,30.28,North,0,0.0,6.0,61,0.00,,,0.00,Wunderground v.1.15,2013-04-18 12:48:00,
2013-04-18 08:55:00,52.2,37.9,30.27,South,174,4.0,6.0,58,0.00,,,0.00,Wunderground v.1.15,2013-04-18 12:55:00,
2013-04-18 09:00:00,53.3,37.5,30.27,SSW,203,5.0,7.0,55,0.00,,,0.00,Wunderground v.1.15,2013-04-18 13:00:00,
2013-04-18 09:05:00,53.8,36.6,30.27,South,188,6.0,10.0,52,0.00,,,0.00,Wunderground v.1.15,2013-04-18 13:05:00,
2013-04-18 09:10:00,54.2,35.9,30.27,SW,230,6.0,7.0,50,0.00,,,0.00,Wunderground v.1.15,2013-04-18 13:10:00,
2013-04-18 09:15:00,54.5,35.2,30.27,SSW,200,1.0,7.0,48,0.00,,,0.00,Wunderground v.1.15,2013-04-18 13:15:00,
2013-04-18 09:20:00,54.8,34.4,30.28,SSW,213,7.0,11.0,46,0.00,,,0.00,Wunderground v.1.15,2013-04-18 13:20:00,
2013-04-18 09:25:00,55.0,34.6,30.28,SSW,203,5.0,11.0,46,0.00,,,0.00,Wunderground v.1.15,2013-04-18 13:25:00,
2013-04-18 09:30:00,55.1,34.7,30.28,SSW,209,3.0,6.0,46,0.00,,,0.00,Wunderground v.1.15,2013-04-18 13:30:00,
2013-04-18 09:35:00,55.3,35.4,30.28,SSW,195,5.0,6.0,47,0.00,,,0.00,Wunderground v.1.15,2013-04-18 13:35:00,
2013-04-18 09:40:00,55.4,34.4,30.28,South,175,2.0,6.0,45,0.00,,,0.00,Wunderground v.1.15,2013-04-18 13:40:00,
2013-04-18 09:46:00,55.4,36.0,30.28,South,179,5.0,8.0,48,0.00,,,0.00,Wunderground v.1.15,2013-04-18 13:46:00,
2013-04-18 09:51:00,55.7,36.3,30.27,SW,216,2.0,4.0,48,0.00,,,0.00,Wunderground v.1.15,2013-04-18 13:51:00,
2013-04-18 09:56:00,55.9,34.8,30.27,South,181,3.0,6.0,45,0.00,,,0.00,Wunderground v.1.15,2013-04-18 13:56:00,
2013-04-18 10:01:00,56.2,34.6,30.27,SSE,167,5.0,8.0,44,0.00,,,0.00,Wunderground v.1.15,2013-04-18 14:01:00,
2013-04-18 10:06:00,56.3,35.2,30.28,South,175,4.0,8.0,45,0.00,,,0.00,Wunderground v.1.15,2013-04-18 14:06:00,
2013-04-18 10:11:00,56.2,34.6,30.28,SSW,208,4.0,6.0,44,0.00,,,0.00,Wunderground v.1.15,2013-04-18 14:11:00,
2013-04-18 10:16:00,56.0,33.8,30.28,SSW,195,13.0,13.0,43,0.00,,,0.00,Wunderground v.1.15,2013-04-18 14:16:00,
2013-04-18 10:21:00,55.7,34.1,30.27,South,184,7.0,12.0,44,0.00,,,0.00,Wunderground v.1.15,2013-04-18 14:21:00,
2013-04-18 10:26:00,55.7,34.1,30.27,South,171,2.0,12.0,44,0.00,,,0.00,Wunderground v.1.15,2013-04-18 14:26:00,
2013-04-18 10:31:00,55.7,34.7,30.27,SSW,212,6.0,8.0,45,0.00,,,0.00,Wunderground v.1.15,2013-04-18 14:31:00,
2013-04-18 10:37:00,55.9,34.3,30.27,SSE,147,3.0,8.0,44,0.00,,,0.00,Wunderground v.1.15,2013-04-18 14:37:00,
2013-04-18 10:42:00,55.9,34.8,30.27,SW,216,3.0,8.0,45,0.00,,,0.00,Wunderground v.1.15,2013-04-18 14:42:00,
2013-04-18 10:47:00,56.0,34.9,30.27,SSW,209,5.0,10.0,45,0.00,,,0.00,Wunderground v.1.15,2013-04-18 14:47:00,
2013-04-18 10:52:00,56.2,35.1,30.27,South,172,3.0,4.0,45,0.00,,,0.00,Wunderground v.1.15,2013-04-18 14:52:00,
2013-04-18 10:57:00,56.3,34.6,30.27,SE,137,3.0,8.0,44,0.00,,,0.00,Wunderground v.1.15,2013-04-18 14:57:00,
2013-04-18 11:02:00,56.6,34.3,30.27,South,172,8.0,10.0,43,0.00,,,0.00,Wunderground v.1.15,2013-04-18 15:02:00,
2013-04-18 11:07:00,56.7,34.4,30.26,SSW,198,2.0,10.0,43,0.00,,,0.00,Wunderground v.1.15,2013-04-18 15:07:00,
2013-04-18 11:12:00,57.0,34.7,30.26,South,185,5.0,8.0,43,0.00,,,0.00,Wunderground v.1.15,2013-04-18 15:12:00,
2013-04-18 11:17:00,57.5,34.0,30.26,SSE,164,7.0,10.0,41,0.00,,,0.00,Wunderground v.1.15,2013-04-18 15:17:00,
2013-04-18 11:22:00,57.8,33.0,30.26,South,184,7.0,10.0,39,0.00,,,0.00,Wunderground v.1.15,2013-04-18 15:22:00,
2013-04-18 11:27:00,58.3,33.4,30.26,SW,232,5.0,10.0,39,0.00,,,0.00,Wunderground v.1.15,2013-04-18 15:27:00,
2013-04-18 11:32:00,59.0,34.1,30.26,SSW,196,7.0,11.0,39,0.00,,,0.00,Wunderground v.1.15,2013-04-18 15:32:00,
2013-04-18 11:37:00,59.6,33.9,30.25,East,100,0.0,11.0,38,0.00,,,0.00,Wunderground v.1.15,2013-04-18 15:37:00,
2013-04-18 11:42:00,60.5,34.1,30.25,SW,229,1.0,7.0,37,0.00,,,0.00,Wunderground v.1.15,2013-04-18 15:42:00,
2013-04-18 11:47:00,60.7,34.3,30.25,SSW,212,7.0,11.0,37,0.00,,,0.00,Wunderground v.1.15,2013-04-18 15:47:00,
2013-04-18 11:52:00,60.5,34.1,30.25,SSW,205,7.0,8.0,37,0.00,,,0.00,Wunderground v.1.15,2013-04-18 15:52:00,
2013-04-18 11:57:00,60.7,34.9,30.25,SSW,199,3.0,12.0,38,0.00,,,0.00,Wunderground v.1.15,2013-04-18 15:57:00,
2013-04-18 12:02:00,60.9,35.1,30.25,South,191,6.0,12.0,38,0.00,,,0.00,Wunderground v.1.15,2013-04-18 16:02:00,
2013-04-18 12:07:00,61.0,35.2,30.24,South,174,4.0,12.0,38,0.00,,,0.00,Wunderground v.1.15,2013-04-18 16:07:00,
2013-04-18 12:12:00,60.9,36.4,30.24,SW,222,3.0,11.0,40,0.00,,,0.00,Wunderground v.1.15,2013-04-18 16:12:00,
2013-04-18 12:18:00,60.5,35.4,30.24,SW,222,3.0,11.0,39,0.00,,,0.00,Wunderground v.1.15,2013-04-18 16:18:00,
2013-04-18 12:25:00,60.5,36.0,30.23,South,175,2.0,10.0,40,0.00,,,0.00,Wunderground v.1.15,2013-04-18 16:25:00,
2013-04-18 12:30:00,60.4,35.3,30.23,South,182,7.0,7.0,39,0.00,,,0.00,Wunderground v.1.15,2013-04-18 16:30:00,
2013-04-18 12:36:00,60.2,35.1,30.23,SSW,199,5.0,8.0,39,0.00,,,0.00,Wunderground v.1.15,2013-04-18 16:36:00,
2013-04-18 12:41:00,60.2,35.1,30.23,WSW,241,6.0,7.0,39,0.00,,,0.00,Wunderground v.1.15,2013-04-18 16:41:00,
2013-04-18 12:46:00,60.4,35.3,30.23,SSE,148,5.0,12.0,39,0.00,,,0.00,Wunderground v.1.15,2013-04-18 16:46:00,
2013-04-18 12:51:00,60.4,35.3,30.22,South,172,6.0,10.0,39,0.00,,,0.00,Wunderground v.1.15,2013-04-18 16:51:00,
2013-04-18 12:57:00,60.4,35.3,30.22,SSE,162,11.0,11.0,39,0.00,,,0.00,Wunderground v.1.15,2013-04-18 16:57:00,
2013-04-18 13:02:00,60.5,35.4,30.22,SSW,193,6.0,10.0,39,0.00,,,0.00,Wunderground v.1.15,2013-04-18 17:02:00,
2013-04-18 13:07:00,60.7,34.9,30.22,South,182,7.0,10.0,38,0.00,,,0.00,Wunderground v.1.15,2013-04-18 17:07:00,
2013-04-18 13:12:00,60.5,34.7,30.22,South,189,3.0,13.0,38,0.00,,,0.00,Wunderground v.1.15,2013-04-18 17:12:00,
2013-04-18 13:17:00,60.9,35.1,30.22,SE,131,3.0,13.0,38,0.00,,,0.00,Wunderground v.1.15,2013-04-18 17:17:00,
2013-04-18 13:22:00,61.2,34.7,30.22,SSW,206,5.0,8.0,37,0.00,,,0.00,Wunderground v.1.15,2013-04-18 17:22:00,
2013-04-18 13:27:00,61.3,34.8,30.22,South,191,7.0,8.0,37,0.00,,,0.00,Wunderground v.1.15,2013-04-18 17:27:00,
2013-04-18 13:32:00,61.2,34.7,30.22,SSW,205,8.0,12.0,37,0.00,,,0.00,Wunderground v.1.15,2013-04-18 17:32:00,
2013-04-18 13:37:00,61.0,34.5,30.21,SE,124,2.0,12.0,37,0.00,,,0.00,Wunderground v.1.15,2013-04-18 17:37:00,
2013-04-18 13:42:00,61.0,35.2,30.21,South,169,2.0,8.0,38,0.00,,,0.00,Wunderground v.1.15,2013-04-18 17:42:00,
2013-04-18 13:47:00,61.3,35.5,30.21,SSW,193,5.0,10.0,38,0.00,,,0.00,Wunderground v.1.15,2013-04-18 17:47:00,
2013-04-18 13:52:00,61.5,35.0,30.21,South,176,3.0,6.0,37,0.00,,,0.00,Wunderground v.1.15,2013-04-18 17:52:00,
2013-04-18 13:57:00,61.6,35.7,30.21,SSW,196,5.0,6.0,38,0.00,,,0.00,Wunderground v.1.15,2013-04-18 17:57:00,
2013-04-18 14:02:00,61.6,35.7,30.21,WSW,239,11.0,11.0,38,0.00,,,0.00,Wunderground v.1.15,2013-04-18 18:02:00,
2013-04-18 14:07:00,61.5,36.3,30.20,SSW,199,6.0,11.0,39,0.00,,,0.00,Wunderground v.1.15,2013-04-18 18:07:00,
2013-04-18 14:12:00,61.5,36.3,30.20,SSW,202,1.0,6.0,39,0.00,,,0.00,Wunderground v.1.15,2013-04-18 18:12:00,
2013-04-18 14:17:00,61.3,36.1,30.20,SSW,196,4.0,8.0,39,0.00,,,0.00,Wunderground v.1.15,2013-04-18 18:17:00,
2013-04-18 14:22:00,61.2,35.4,30.20,SSW,192,8.0,12.0,38,0.00,,,0.00,Wunderground v.1.15,2013-04-18 18:22:00,
2013-04-18 14:27:00,60.9,37.0,30.20,SSW,196,6.0,12.0,41,0.00,,,0.00,Wunderground v.1.15,2013-04-18 18:27:00,
2013-04-18 14:32:00,60.7,35.6,30.20,South,185,2.0,17.0,39,0.00,,,0.00,Wunderground v.1.15,2013-04-18 18:32:00,
2013-04-18 14:37:00,60.7,36.8,30.20,SSE,162,8.0,17.0,41,0.00,,,0.00,Wunderground v.1.15,2013-04-18 18:37:00,
2013-04-18 14:45:00,60.5,36.7,30.20,South,175,6.0,11.0,41,0.00,,,0.00,Wunderground v.1.15,2013-04-18 18:45:00,
2013-04-18 14:50:00,60.2,35.8,30.19,SSE,168,2.0,7.0,40,0.00,,,0.00,Wunderground v.1.15,2013-04-18 18:50:00,
2013-04-18 14:56:00,60.1,36.3,30.19,South,188,6.0,16.0,41,0.00,,,0.00,Wunderground v.1.15,2013-04-18 18:56:00,
2013-04-18 15:01:00,60.1,35.7,30.19,South,181,4.0,6.0,40,0.00,,,0.00,Wunderground v.1.15,2013-04-18 19:01:00,
2013-04-18 15:06:00,60.1,35.7,30.18,SW,224,6.0,9.0,40,0.00,,,0.00,Wunderground v.1.15,2013-04-18 19:06:00,
2013-04-18 15:12:00,60.1,35.7,30.18,SE,140,2.0,8.0,40,0.00,,,0.00,Wunderground v.1.15,2013-04-18 19:12:00,
2013-04-18 15:17:00,60.2,35.8,30.18,SSE,165,1.0,8.0,40,0.00,,,0.00,Wunderground v.1.15,2013-04-18 19:17:00,
2013-04-18 15:22:00,60.1,35.7,30.18,SSW,195,6.0,6.0,40,0.00,,,0.00,Wunderground v.1.15,2013-04-18 19:22:00,
2013-04-18 15:27:00,59.9,36.1,30.18,South,169,3.0,7.0,41,0.00,,,0.00,Wunderground v.1.15,2013-04-18 19:27:00,
2013-04-18 15:32:00,59.9,35.5,30.18,SSW,192,4.0,6.0,40,0.00,,,0.00,Wunderground v.1.15,2013-04-18 19:32:00,
2013-04-18 15:37:00,59.8,35.4,30.17,SSW,199,7.0,7.0,40,0.00,,,0.00,Wunderground v.1.15,2013-04-18 19:37:00,
2013-04-18 15:42:00,59.6,35.9,30.17,South,188,2.0,10.0,41,0.00,,,0.00,Wunderground v.1.15,2013-04-18 19:42:00,
2013-04-18 15:48:00,59.6,36.5,30.17,South,174,7.0,10.0,42,0.00,,,0.00,Wunderground v.1.15,2013-04-18 19:48:00,
2013-04-18 15:55:00,59.6,35.9,30.16,WSW,258,7.0,7.0,41,0.00,,,0.00,Wunderground v.1.15,2013-04-18 19:55:00,
2013-04-18 16:00:00,59.8,36.6,30.16,South,172,4.0,4.0,42,0.00,,,0.00,Wunderground v.1.15,2013-04-18 20:00:00,
2013-04-18 16:05:00,59.8,36.6,30.15,ESE,113,6.0,10.0,42,0.00,,,0.00,Wunderground v.1.15,2013-04-18 20:05:00,
2013-04-18 16:10:00,59.6,34.6,30.15,South,181,8.0,8.0,39,0.00,,,0.00,Wunderground v.1.15,2013-04-18 20:10:00,
2013-04-18 16:15:00,59.3,35.0,30.15,East,89,0.0,10.0,40,0.00,,,0.00,Wunderground v.1.15,2013-04-18 20:15:00,
2013-04-18 16:20:00,59.0,33.4,30.15,SSW,200,5.0,7.0,38,0.00,,,0.00,Wunderground v.1.15,2013-04-18 20:20:00,
2013-04-18 16:26:00,58.7,33.1,30.15,SSE,150,10.0,12.0,38,0.00,,,0.00,Wunderground v.1.15,2013-04-18 20:26:00,
2013-04-18 16:31:00,58.6,33.7,30.15,SSE,165,3.0,12.0,39,0.00,,,0.00,Wunderground v.1.15,2013-04-18 20:31:00,
2013-04-18 16:36:00,58.4,34.2,30.15,South,186,5.0,12.0,40,0.00,,,0.00,Wunderground v.1.15,2013-04-18 20:36:00,
2013-04-18 16:41:00,58.3,33.4,30.15,SSW,206,5.0,6.0,39,0.00,,,0.00,Wunderground v.1.15,2013-04-18 20:41:00,
2013-04-18 16:46:00,58.1,34.5,30.15,SW,224,2.0,6.0,41,0.00,,,0.00,Wunderground v.1.15,2013-04-18 20:46:00,
2013-04-18 16:51:00,58.1,34.5,30.15,South,185,3.0,4.0,41,0.00,,,0.00,Wunderground v.1.15,2013-04-18 20:51:00,
2013-04-18 16:56:00,58.1,34.5,30.15,SSW,192,1.0,9.0,41,0.00,,,0.00,Wunderground v.1.15,2013-04-18 20:56:00,
2013-04-18 17:02:00,58.0,35.0,30.15,SE,144,5.0,5.0,42,0.00,,,0.00,Wunderground v.1.15,2013-04-18 21:02:00,
2013-04-18 17:07:00,57.8,34.8,30.15,SSW,199,3.0,8.0,42,0.00,,,0.00,Wunderground v.1.15,2013-04-18 21:07:00,
2013-04-18 17:12:00,57.6,35.2,30.15,South,188,4.0,9.0,43,0.00,,,0.00,Wunderground v.1.15,2013-04-18 21:12:00,
2013-04-18 17:17:00,57.6,35.8,30.15,SSW,192,1.0,9.0,44,0.00,,,0.00,Wunderground v.1.15,2013-04-18 21:17:00,
2013-04-18 17:22:00,57.5,36.3,30.15,South,184,0.0,5.0,45,0.00,,,0.00,Wunderground v.1.15,2013-04-18 21:22:00,
2013-04-18 17:27:00,57.5,36.9,30.15,SSW,213,8.0,11.0,46,0.00,,,0.00,Wunderground v.1.15,2013-04-18 21:27:00,
2013-04-18 17:32:00,57.5,36.9,30.15,South,181,3.0,10.0,46,0.00,,,0.00,Wunderground v.1.15,2013-04-18 21:32:00,
2013-04-18 17:37:00,57.3,37.2,30.14,SSW,202,7.0,10.0,47,0.00,,,0.00,Wunderground v.1.15,2013-04-18 21:37:00,
2013-04-18 17:42:00,57.3,37.8,30.14,South,191,0.0,4.0,48,0.00,,,0.00,Wunderground v.1.15,2013-04-18 21:42:00,
2013-04-18 17:47:00,57.3,37.8,30.14,SSE,167,2.0,5.0,48,0.00,,,0.00,Wunderground v.1.15,2013-04-18 21:47:00,
2013-04-18 17:52:00,57.2,37.7,30.15,SSW,199,3.0,7.0,48,0.00,,,0.00,Wunderground v.1.15,2013-04-18 21:52:00,
2013-04-18 17:57:00,57.2,37.7,30.15,South,175,0.0,7.0,48,0.00,,,0.00,Wunderground v.1.15,2013-04-18 21:57:00,
2013-04-18 18:03:00,57.0,39.0,30.15,SSW,193,6.0,12.0,51,0.00,,,0.00,Wunderground v.1.15,2013-04-18 22:03:00,
2013-04-18 18:08:00,56.9,41.4,30.15,SW,215,2.0,12.0,56,0.00,,,0.00,Wunderground v.1.15,2013-04-18 22:08:00,
2013-04-18 18:15:00,56.3,42.1,30.15,SSW,192,2.0,10.0,59,0.00,,,0.00,Wunderground v.1.15,2013-04-18 22:15:00,
2013-04-18 18:20:00,56.0,42.3,30.15,South,188,0.0,3.0,60,0.00,,,0.00,Wunderground v.1.15,2013-04-18 22:20:00,
2013-04-18 18:25:00,55.7,42.5,30.15,South,176,2.0,8.0,61,0.00,,,0.00,Wunderground v.1.15,2013-04-18 22:25:00,
2013-04-18 18:30:00,55.6,43.6,30.15,South,175,0.0,2.0,64,0.00,,,0.00,Wunderground v.1.15,2013-04-18 22:30:00,
2013-04-18 18:35:00,55.3,43.3,30.14,South,189,4.0,6.0,64,0.00,,,0.00,Wunderground v.1.15,2013-04-18 22:35:00,
2013-04-18 18:40:00,55.0,44.6,30.14,SSW,203,3.0,4.0,68,0.00,,,0.00,Wunderground v.1.15,2013-04-18 22:40:00,
2013-04-18 18:45:00,54.7,44.3,30.14,South,181,3.0,4.0,68,0.00,,,0.00,Wunderground v.1.15,2013-04-18 22:45:00,
2013-04-18 18:50:00,54.5,44.9,30.14,South,181,0.0,2.0,70,0.00,,,0.00,Wunderground v.1.15,2013-04-18 22:50:00,
2013-04-18 18:55:00,54.2,44.6,30.14,South,181,0.0,5.0,70,0.00,,,0.00,Wunderground v.1.15,2013-04-18 22:55:00,
2013-04-18 19:00:00,54.1,45.3,30.14,South,181,0.0,1.0,72,0.00,,,0.00,Wunderground v.1.15,2013-04-18 23:00:00,
2013-04-18 19:06:00,54.1,45.3,30.13,South,181,3.0,3.0,72,0.00,,,0.00,Wunderground v.1.15,2013-04-18 23:06:00,
2013-04-18 19:11:00,53.9,45.1,30.13,South,169,0.0,1.0,72,0.00,,,0.00,Wunderground v.1.15,2013-04-18 23:11:00,
2013-04-18 19:16:00,53.8,45.0,30.13,South,172,3.0,3.0,72,0.00,,,0.00,Wunderground v.1.15,2013-04-18 23:16:00,
2013-04-18 19:21:00,53.6,45.5,30.13,South,174,0.0,1.0,74,0.00,,,0.00,Wunderground v.1.15,2013-04-18 23:21:00,
2013-04-18 19:26:00,53.6,45.9,30.13,SSW,203,3.0,4.0,75,0.00,,,0.00,Wunderground v.1.15,2013-04-18 23:26:00,
2013-04-18 19:31:00,53.6,45.9,30.13,SSW,203,0.0,2.0,75,0.00,,,0.00,Wunderground v.1.15,2013-04-18 23:31:00,
2013-04-18 19:36:00,53.6,46.2,30.12,SSW,203,0.0,2.0,76,0.00,,,0.00,Wunderground v.1.15,2013-04-18 23:36:00,
2013-04-18 19:41:00,53.6,46.2,30.12,SSE,160,2.0,6.0,76,0.00,,,0.00,Wunderground v.1.15,2013-04-18 23:41:00,
2013-04-18 19:46:00,53.6,46.2,30.12,South,175,0.0,6.0,76,0.00,,,0.00,Wunderground v.1.15,2013-04-18 23:46:00,
2013-04-18 19:51:00,53.6,46.2,30.11,SSW,202,2.0,2.0,76,0.00,,,0.00,Wunderground v.1.15,2013-04-18 23:51:00,
2013-04-18 19:56:00,53.6,46.2,30.11,SW,232,1.0,2.0,76,0.00,,,0.00,Wunderground v.1.15,2013-04-18 23:56:00,
2013-04-18 20:01:00,53.8,46.4,30.11,South,184,2.0,2.0,76,0.00,,,0.00,Wunderground v.1.15,2013-04-19 00:01:00,
2013-04-18 20:06:00,53.8,46.8,30.10,SSE,154,1.0,4.0,77,0.00,,,0.00,Wunderground v.1.15,2013-04-19 00:06:00,
2013-04-18 20:11:00,53.9,46.9,30.10,SSE,154,0.0,1.0,77,0.00,,,0.00,Wunderground v.1.15,2013-04-19 00:11:00,
2013-04-18 20:16:00,53.9,46.9,30.10,SSW,200,2.0,4.0,77,0.00,,,0.00,Wunderground v.1.15,2013-04-19 00:16:00,
2013-04-18 20:21:00,53.9,46.9,30.10,SSW,213,0.0,3.0,77,0.00,,,0.00,Wunderground v.1.15,2013-04-19 00:21:00,
2013-04-18 20:26:00,53.9,46.9,30.10,SW,215,1.0,3.0,77,0.00,,,0.00,Wunderground v.1.15,2013-04-19 00:26:00,
2013-04-18 20:31:00,53.8,46.8,30.10,SW,230,2.0,2.0,77,0.00,,,0.00,Wunderground v.1.15,2013-04-19 00:31:00,
2013-04-18 20:36:00,53.8,46.8,30.10,SSW,192,0.0,2.0,77,0.00,,,0.00,Wunderground v.1.15,2013-04-19 00:36:00,
2013-04-18 20:41:00,53.8,46.8,30.10,SSW,192,0.0,1.0,77,0.00,,,0.00,Wunderground v.1.15,2013-04-19 00:41:00,
2013-04-18 20:46:00,53.8,46.8,30.10,SSW,192,0.0,1.0,77,0.00,,,0.00,Wunderground v.1.15,2013-04-19 00:46:00,
2013-04-18 20:51:00,53.8,46.8,30.10,South,186,1.0,3.0,77,0.00,,,0.00,Wunderground v.1.15,2013-04-19 00:51:00,
2013-04-18 20:56:00,53.8,46.8,30.10,South,178,2.0,3.0,77,0.00,,,0.00,Wunderground v.1.15,2013-04-19 00:56:00,
2013-04-18 21:01:00,53.8,46.8,30.10,South,178,3.0,3.0,77,0.00,,,0.00,Wunderground v.1.15,2013-04-19 01:01:00,
2013-04-18 21:06:00,53.8,46.8,30.09,South,182,3.0,7.0,77,0.00,,,0.00,Wunderground v.1.15,2013-04-19 01:06:00,
2013-04-18 21:11:00,53.8,46.8,30.09,SSW,192,0.0,3.0,77,0.00,,,0.00,Wunderground v.1.15,2013-04-19 01:11:00,
2013-04-18 21:16:00,53.8,46.8,30.09,SSE,157,5.0,5.0,77,0.00,,,0.00,Wunderground v.1.15,2013-04-19 01:16:00,
2013-04-18 21:21:00,53.8,46.8,30.08,SSE,165,2.0,4.0,77,0.00,,,0.00,Wunderground v.1.15,2013-04-19 01:21:00,
2013-04-18 21:27:00,53.8,46.8,30.08,SSE,168,0.0,4.0,77,0.00,,,0.00,Wunderground v.1.15,2013-04-19 01:27:00,
2013-04-18 21:32:00,53.8,47.1,30.08,SSW,202,2.0,5.0,78,0.00,,,0.00,Wunderground v.1.15,2013-04-19 01:32:00,
2013-04-18 21:37:00,53.8,47.1,30.08,SSW,203,2.0,5.0,78,0.00,,,0.00,Wunderground v.1.15,2013-04-19 01:37:00,
2013-04-18 21:42:00,53.8,47.1,30.08,SSW,203,1.0,2.0,78,0.00,,,0.00,Wunderground v.1.15,2013-04-19 01:42:00,
2013-04-18 21:47:00,53.8,47.1,30.08,South,179,3.0,9.0,78,0.00,,,0.00,Wunderground v.1.15,2013-04-19 01:47:00,
2013-04-18 21:52:00,53.8,47.1,30.08,South,179,0.0,2.0,78,0.00,,,0.00,Wunderground v.1.15,2013-04-19 01:52:00,
2013-04-18 21:57:00,53.8,47.1,30.08,South,179,2.0,5.0,78,0.00,,,0.00,Wunderground v.1.15,2013-04-19 01:57:00,
2013-04-18 22:02:00,53.8,47.4,30.08,South,179,0.0,2.0,79,0.00,,,0.00,Wunderground v.1.15,2013-04-19 02:02:00,
2013-04-18 22:07:00,53.8,47.4,30.08,SSW,198,0.0,2.0,79,0.00,,,0.00,Wunderground v.1.15,2013-04-19 02:07:00,
2013-04-18 22:12:00,53.6,47.2,30.08,SSW,195,0.0,0.0,79,0.00,,,0.00,Wunderground v.1.15,2013-04-19 02:12:00,
2013-04-18 22:17:00,53.6,47.2,30.08,South,184,0.0,0.0,79,0.00,,,0.00,Wunderground v.1.15,2013-04-19 02:17:00,
2013-04-18 22:22:00,53.6,47.6,30.06,South,178,2.0,5.0,80,0.00,,,0.00,Wunderground v.1.15,2013-04-19 02:22:00,
2013-04-18 22:27:00,53.6,47.6,30.06,South,178,0.0,5.0,80,0.00,,,0.00,Wunderground v.1.15,2013-04-19 02:27:00,
2013-04-18 22:32:00,53.6,47.6,30.06,South,178,0.0,1.0,80,0.00,,,0.00,Wunderground v.1.15,2013-04-19 02:32:00,
2013-04-18 22:37:00,53.5,47.8,30.06,South,182,2.0,5.0,81,0.00,,,0.00,Wunderground v.1.15,2013-04-19 02:37:00,
2013-04-18 22:42:00,53.5,48.1,30.06,South,186,2.0,3.0,82,0.00,,,0.00,Wunderground v.1.15,2013-04-19 02:42:00,
2013-04-18 22:47:00,53.5,48.5,30.06,SW,217,2.0,6.0,83,0.00,,,0.00,Wunderground v.1.15,2013-04-19 02:47:00,
2013-04-18 22:52:00,53.5,48.5,30.05,SW,219,3.0,3.0,83,0.00,,,0.00,Wunderground v.1.15,2013-04-19 02:52:00,
2013-04-18 22:57:00,53.5,48.8,30.05,SSE,167,3.0,3.0,84,0.00,,,0.00,Wunderground v.1.15,2013-04-19 02:57:00,
2013-04-18 23:02:00,53.5,48.8,30.05,South,181,0.0,2.0,84,0.00,,,0.00,Wunderground v.1.15,2013-04-19 03:02:00,
2013-04-18 23:07:00,53.3,48.9,30.05,South,179,2.0,5.0,85,0.00,,,0.00,Wunderground v.1.15,2013-04-19 03:07:00,
2013-04-18 23:12:00,53.3,48.9,30.05,SSW,202,2.0,3.0,85,0.00,,,0.00,Wunderground v.1.15,2013-04-19 03:12:00,
2013-04-18 23:17:00,53.3,48.9,30.05,South,186,0.0,3.0,85,0.00,,,0.00,Wunderground v.1.15,2013-04-19 03:17:00,
2013-04-18 23:22:00,53.3,48.9,30.04,SSW,212,1.0,6.0,85,0.00,,,0.00,Wunderground v.1.15,2013-04-19 03:22:00,
2013-04-18 23:28:00,53.3,48.9,30.04,SSW,212,0.0,6.0,85,0.00,,,0.00,Wunderground v.1.15,2013-04-19 03:28:00,
2013-04-18 23:33:00,53.2,49.1,30.04,SSW,212,0.0,1.0,86,0.00,,,0.00,Wunderground v.1.15,2013-04-19 03:33:00,
2013-04-18 23:38:00,53.2,49.1,30.04,SSW,212,0.0,1.0,86,0.00,,,0.00,Wunderground v.1.15,2013-04-19 03:38:00,
2013-04-18 23:43:00,53.2,49.1,30.04,SSW,212,0.0,0.0,86,0.00,,,0.00,Wunderground v.1.15,2013-04-19 03:43:00,
2013-04-18 23:48:00,53.2,49.1,30.04,SSW,212,0.0,0.0,86,0.00,,,0.00,Wunderground v.1.15,2013-04-19 03:48:00,
2013-04-18 23:53:00,53.2,49.1,30.04,SSW,196,0.0,0.0,86,0.00,,,0.00,Wunderground v.1.15,2013-04-19 03:53:00,
2013-04-18 23:58:00,53.2,49.1,30.04,SSW,199,1.0,3.0,86,0.00,,,0.00,Wunderground v.1.15,2013-04-19 03:58:00,